Mitchell, SD

12:10 AM CDT on August 31, 2016 (GMT -0500)
Mitchell Municipal

Weather History for KMHE - October, 2013

Change the Weather History Date:

Sunday, October 6, 2013

  Actual Average Record
Temperature  
Mean Temperature 52 °F 54 °F  
Max Temperature 63 °F 67 °F 91 °F (1961)
Min Temperature 40 °F 41 °F 22 °F (1935)
Degree Days  
Heating Degree Days 13 12  
Month to date heating degree days 64 65  
Since 1 July heating degree days 125 223  
Cooling Degree Days 0 1  
Month to date cooling degree days 0 6  
Year to date cooling degree days 944 823  
Growing Degree Days 2 (Base 50)    
Moisture  
Dew Point 40 °F    
Average Humidity 65    
Maximum Humidity 100    
Minimum Humidity 30    
Precipitation  
Precipitation 0.12 in 0.06 in 1.50 in (1901)
Month to date precipitation 1.16 0.39  
Year to date precipitation 22.09 19.06  
Snow  
Snow 0.00 in - 0.00 in ()
Month to date snowfall 0.0  
Since 1 July snowfall 0.0  
Since 1 September snowfall 0.0  
Snow Depth 0.00 in    
Sea Level Pressure  
Sea Level Pressure 29.93 in    
Wind  
Wind Speed 13 mph (NW)    
Max Wind Speed 25 mph    
Max Gust Speed 36 mph    
Visibility 10 miles    
Events Rain    
T = Trace of Precipitation, MM = Missing Value Source: NWS Daily Summary

Daily Weather History Graph

Daily Weather History Graph

Search for Another Location

Airport or City:

Trip Planner

Search our weather history database for the weather conditions in past years. The results will help you decide how hot, cold, wet, or windy it might be!

Date:

Astronomy

Oct. 06, 2013 Rise Set
Actual Time 7:35 AM CDT 7:03 PM CDT
Civil Twilight 7:07 AM CDT 7:32 PM CDT
Nautical Twilight 6:33 AM CDT 8:05 PM CDT
Astronomical Twilight 6:00 AM CDT 8:38 PM CDT
Moon 9:26 AM CDT (10/6) 7:58 PM CDT (10/6)
Length of Visible Light 12h 25m
Length of Day
11h 27m
Waxing Crescent, 3% of the Moon is Illuminated
Oct 6
Waxing Crescent
Oct 11
First Quarter
Oct 18
Full
Oct 26
Last Quarter
Nov 3
New

Hourly Weather History & Observations

Time (CDT) Temp. Windchill Dew Point Humidity Pressure Visibility Wind Dir Wind Speed Gust Speed Precip Events Conditions
12:53 AM 41.0 °F 36.4 °F 39.9 °F 96% 29.86 in 10.0 mi NW 6.9 mph - 0.00 in   Partly Cloudy
1:48 AM 41.0 °F 35.8 °F 39.2 °F 93% 29.85 in 10.0 mi NW 8.1 mph - N/A   Mostly Cloudy
1:53 AM 41.0 °F 35.8 °F 39.9 °F 96% 29.87 in 10.0 mi NW 8.1 mph - N/A   Mostly Cloudy
2:00 AM 42.8 °F 37.0 °F 41.0 °F 93% 29.85 in 10.0 mi NW 10.4 mph - N/A   Mostly Cloudy
2:16 AM 42.8 °F 37.5 °F 42.8 °F 100% 29.86 in 10.0 mi NW 9.2 mph - N/A   Overcast
2:27 AM 44.6 °F 39.2 °F 42.8 °F 93% 29.85 in 6.0 mi NW 10.4 mph - N/A   Overcast
2:53 AM 45.0 °F 38.9 °F 44.1 °F 97% 29.88 in 10.0 mi NNW 12.7 mph 23.0 mph 0.01 in   Overcast
3:53 AM 44.1 °F 37.4 °F 43.0 °F 96% 29.87 in 7.0 mi NW 13.8 mph 21.9 mph N/A   Overcast
4:53 AM 45.0 °F 37.9 °F 43.0 °F 93% 29.88 in 10.0 mi NNW 16.1 mph 26.5 mph N/A   Overcast
5:53 AM 45.0 °F 38.5 °F 43.0 °F 93% 29.89 in 10.0 mi NNW 13.8 mph 24.2 mph 0.00 in Rain Light Rain
6:14 AM 44.6 °F 37.4 °F 42.8 °F 93% 29.88 in 10.0 mi NNW 16.1 mph 24.2 mph 0.02 in Rain Light Rain
6:29 AM 44.6 °F 37.8 °F 42.8 °F 93% 29.88 in 9.0 mi NNW 15.0 mph 24.2 mph 0.02 in Rain Light Rain
6:53 AM 45.0 °F 38.5 °F 43.0 °F 93% 29.90 in 10.0 mi NW 13.8 mph 21.9 mph 0.03 in Rain Light Rain
7:53 AM 44.1 °F 36.8 °F 42.1 °F 93% 29.92 in 4.0 mi NNW 16.1 mph 24.2 mph 0.02 in Rain Light Rain
8:53 AM 44.1 °F 37.1 °F 43.0 °F 96% 29.94 in 7.0 mi NW 15.0 mph 21.9 mph 0.05 in Rain Light Rain
9:38 AM 44.6 °F 38.1 °F 42.8 °F 93% 29.92 in 10.0 mi NW 13.8 mph 25.3 mph 0.01 in Rain Light Rain
9:53 AM 44.1 °F 36.8 °F 42.1 °F 93% 29.95 in 10.0 mi NNW 16.1 mph 27.6 mph 0.01 in   Overcast
10:53 AM 45.0 °F 37.9 °F 41.0 °F 86% 29.96 in 10.0 mi NW 16.1 mph 24.2 mph N/A   Overcast
11:15 AM 44.6 °F 36.9 °F 41.0 °F 87% 29.94 in 10.0 mi NNW 18.4 mph 26.5 mph N/A   Overcast
11:53 AM 48.9 °F - 42.1 °F 77% 29.96 in 10.0 mi NNW 15.0 mph 24.2 mph N/A   Overcast
12:53 PM 54.0 °F - 39.9 °F 59% 29.97 in 10.0 mi NNW 23.0 mph 28.8 mph N/A   Clear
1:53 PM 55.9 °F - 36.0 °F 47% 29.96 in 10.0 mi NNW 21.9 mph 28.8 mph N/A   Clear
2:53 PM 57.9 °F - 32.0 °F 37% 29.95 in 10.0 mi NNW 20.7 mph 28.8 mph N/A   Clear
3:53 PM 61.0 °F - 32.0 °F 34% 29.95 in 10.0 mi NW 16.1 mph 25.3 mph N/A   Clear
4:53 PM 62.1 °F - 30.0 °F 30% 29.95 in 10.0 mi NW 12.7 mph 20.7 mph N/A   Clear
5:53 PM 62.1 °F - 33.1 °F 34% 29.97 in 10.0 mi NNW 12.7 mph - N/A   Clear
6:53 PM 57.0 °F - 36.0 °F 45% 29.99 in 10.0 mi NW 6.9 mph - N/A   Clear
7:53 PM 51.1 °F - 37.0 °F 59% 30.00 in 10.0 mi WNW 5.8 mph - N/A   Clear
8:53 PM 51.1 °F - 37.9 °F 61% 30.01 in 10.0 mi West 6.9 mph - N/A   Clear
9:53 PM 48.9 °F - 37.9 °F 66% 30.02 in 10.0 mi West 8.1 mph - N/A   Clear
10:53 PM 48.9 °F - 39.9 °F 71% 30.02 in 10.0 mi West 9.2 mph - N/A   Clear
11:53 PM 46.9 °F - 39.9 °F 77% 30.02 in 10.0 mi West 8.1 mph - N/A   Clear